Weather History for KPOV - February, 2013

Change the Weather History Date:

Saturday, February 9, 2013

  Actual Average (KCAK) Record (KCAK)
Temperature  
Mean Temperature 24 °F 28 °F  
Max Temperature 32 °F 35 °F 65 °F (1925)
Min Temperature 15 °F 20 °F -15 °F (1934)
Degree Days  
Heating Degree Days 42 37  
Month to date heating degree days 340  
Since 1 July heating degree days 3876  
Cooling Degree Days 0 0  
Month to date cooling degree days 0  
Year to date cooling degree days 0  
Moisture  
Dew Point 16 °F    
Average Humidity 70    
Maximum Humidity 85    
Minimum Humidity 48    
Precipitation  
Precipitation 0.00 in 0.08 in - ()
Month to date precipitation 0.74  
Year to date precipitation 3.35  
Snow  
Snow 0.00 in 0.40 in - ()
Month to date snowfall 3.4  
Since 1 July snowfall 29.4  
Snow Depth -    
Sea Level Pressure  
Sea Level Pressure 30.32 in    
Wind  
Wind Speed 7 mph (NW)    
Max Wind Speed 14 mph    
Max Gust Speed 24 mph    
Visibility 10 miles    
Events Snow    
T = Trace of Precipitation, MM = Missing Value Source: NWS Daily Summary

Daily Weather History Graph

Daily Weather History Graph

Search for Another Location

Airport or City:

Trip Planner

Search our weather history database for the weather conditions in past years. The results will help you decide how hot, cold, wet, or windy it might be!

Date:

Astronomy

Feb. 09, 2013 Rise Set
Actual Time 7:26 AM EST 5:52 PM EST
Civil Twilight 6:58 AM EST 6:20 PM EST
Nautical Twilight 6:25 AM EST 6:53 PM EST
Astronomical Twilight 5:53 AM EST 7:25 PM EST
Moon 6:37 AM EST (2/9) 5:33 PM EST (2/9)
Length of Visible Light 11h 22m
Length of Day
10h 25m
Waning Crescent, 0% of the Moon is Illuminated
Feb 9
Waning Crescent
Feb 10
New
Feb 17
First Quarter
Feb 25
Full
Mar 4
Last Quarter

Hourly Weather History & Observations

Time (EST) Temp. Windchill Dew Point Humidity Pressure Visibility Wind Dir Wind Speed Gust Speed Precip Events Conditions
12:15 AM 24.6 °F 15.1 °F 19.6 °F 81% 30.20 in 10.0 mi NW 9.2 mph 21.9 mph N/A   Overcast
12:35 AM 24.4 °F 12.4 °F 18.5 °F 78% 30.21 in 10.0 mi NW 13.8 mph 24.2 mph N/A   Overcast
12:55 AM 24.3 °F 12.7 °F 18.0 °F 77% 30.22 in 10.0 mi NNW 12.7 mph - N/A   Overcast
1:15 AM 23.9 °F 12.9 °F 18.0 °F 78% 30.22 in 10.0 mi NNW 11.5 mph 16.1 mph N/A   Overcast
1:35 AM 23.9 °F 12.3 °F 18.1 °F 79% 30.22 in 10.0 mi NNW 12.7 mph 16.1 mph N/A   Overcast
1:56 AM 24.1 °F 13.1 °F 18.3 °F 79% 30.22 in 5.0 mi NNW 11.5 mph 18.4 mph N/A Snow Light Snow
2:15 AM 24.3 °F 13.3 °F 17.6 °F 76% 30.23 in 10.0 mi NNW 11.5 mph 16.1 mph N/A   Overcast
2:35 AM 23.9 °F 13.5 °F 18.3 °F 79% 30.24 in 10.0 mi NNW 10.4 mph 17.3 mph N/A   Overcast
2:56 AM 23.9 °F 12.9 °F 17.6 °F 77% 30.24 in 10.0 mi North 11.5 mph 18.4 mph N/A   Overcast
3:15 AM 23.7 °F 14.7 °F 17.4 °F 77% 30.25 in 10.0 mi NW 8.1 mph - N/A   Overcast
3:35 AM 23.9 °F 14.2 °F 17.4 °F 76% 30.25 in 10.0 mi NNW 9.2 mph 17.3 mph N/A   Overcast
3:55 AM 24.3 °F 13.9 °F 17.2 °F 75% 30.25 in 10.0 mi NNW 10.4 mph 19.6 mph N/A   Overcast
4:15 AM 24.1 °F 16.0 °F 17.6 °F 76% 30.25 in 10.0 mi NNW 6.9 mph - N/A   Overcast
4:35 AM 23.9 °F 15.0 °F 18.5 °F 80% 30.26 in 10.0 mi NW 8.1 mph - N/A   Overcast
4:55 AM 23.9 °F 16.8 °F 18.9 °F 81% 30.28 in 10.0 mi NNW 5.8 mph - N/A   Overcast
5:15 AM 23.9 °F 15.0 °F 19.0 °F 82% 30.28 in 10.0 mi NW 8.1 mph - N/A   Overcast
5:35 AM 24.1 °F 13.7 °F 19.0 °F 81% 30.29 in 10.0 mi WNW 10.4 mph - N/A Snow Light Snow
5:56 AM 23.9 °F 12.9 °F 18.3 °F 79% 30.30 in 10.0 mi NW 11.5 mph - N/A Snow Light Snow
6:15 AM 23.9 °F 13.5 °F 18.1 °F 79% 30.30 in 10.0 mi NW 10.4 mph 16.1 mph N/A Snow Light Snow
6:35 AM 23.9 °F 13.5 °F 18.1 °F 79% 30.31 in 10.0 mi NW 10.4 mph 16.1 mph N/A Snow Light Snow
6:56 AM 23.9 °F 15.0 °F 18.5 °F 80% 30.32 in 10.0 mi NW 8.1 mph - N/A   Overcast
7:15 AM 23.5 °F 14.5 °F 18.3 °F 80% 30.33 in 10.0 mi NW 8.1 mph - N/A Snow Light Snow
7:35 AM 23.5 °F 16.4 °F 17.8 °F 79% 30.33 in 10.0 mi NW 5.8 mph - N/A Snow Light Snow
7:55 AM 23.4 °F 17.4 °F 17.6 °F 79% 30.34 in 10.0 mi NW 4.6 mph - N/A   Overcast
8:15 AM 23.5 °F 16.4 °F 17.6 °F 78% 30.35 in 10.0 mi NW 5.8 mph - N/A   Overcast
8:35 AM 23.5 °F 14.5 °F 17.2 °F 77% 30.36 in 10.0 mi NNW 8.1 mph - N/A   Overcast
8:55 AM 23.5 °F 14.5 °F 16.9 °F 76% 30.37 in 10.0 mi NNW 8.1 mph - N/A   Overcast
9:15 AM 23.5 °F 16.4 °F 17.4 °F 77% 30.37 in 10.0 mi NNW 5.8 mph - N/A   Overcast
9:36 AM 23.9 °F 15.8 °F 17.2 °F 76% 30.37 in 10.0 mi NNW 6.9 mph - N/A   Overcast
10:15 AM 25.0 °F 17.1 °F 17.1 °F 72% 30.38 in 10.0 mi NW 6.9 mph - N/A   Overcast
10:35 AM 24.8 °F 16.9 °F 16.3 °F 70% 30.38 in 10.0 mi North 6.9 mph - N/A   Scattered Clouds
10:56 AM 26.8 °F 19.3 °F 17.1 °F 67% 30.38 in 10.0 mi West 6.9 mph - N/A   Scattered Clouds
11:15 AM 26.8 °F 21.4 °F 16.3 °F 65% 30.38 in 10.0 mi NW 4.6 mph - N/A   Mostly Cloudy
11:35 AM 27.9 °F 22.6 °F 16.9 °F 63% 30.37 in 10.0 mi WNW 4.6 mph - N/A   Scattered Clouds
11:56 AM 27.9 °F 21.5 °F 16.0 °F 61% 30.37 in 10.0 mi NW 5.8 mph - N/A   Scattered Clouds
12:15 PM 28.0 °F 22.8 °F 17.2 °F 64% 30.37 in 10.0 mi West 4.6 mph - N/A   Clear
12:35 PM 28.4 °F 24.6 °F 16.0 °F 60% 30.36 in 10.0 mi West 3.5 mph - N/A   Clear
12:55 PM 28.8 °F 25.0 °F 16.0 °F 59% 30.35 in 10.0 mi West 3.5 mph - N/A   Clear
1:15 PM 29.3 °F - 15.4 °F 56% 30.35 in 10.0 mi Calm Calm - N/A   Clear
1:35 PM 29.7 °F 26.1 °F 15.1 °F 55% 30.35 in 10.0 mi SW 3.5 mph - N/A   Clear
1:55 PM 30.4 °F 24.5 °F 15.3 °F 53% 30.35 in 10.0 mi WNW 5.8 mph - N/A   Clear
2:16 PM 30.7 °F 27.3 °F 15.4 °F 53% 30.35 in 10.0 mi WNW 3.5 mph - N/A   Clear
2:35 PM 30.6 °F 27.1 °F 14.7 °F 52% 30.34 in 10.0 mi West 3.5 mph - N/A   Clear
2:55 PM 30.9 °F - 13.5 °F 48% 30.34 in 10.0 mi Calm Calm - N/A   Clear
3:15 PM 30.9 °F - 14.0 °F 50% 30.34 in 10.0 mi Calm Calm - N/A   Clear
3:35 PM 31.6 °F - 14.9 °F 50% 30.34 in 10.0 mi Calm Calm - N/A   Clear
3:56 PM 31.8 °F - 15.8 °F 52% 30.33 in 10.0 mi Calm Calm - N/A   Clear
4:15 PM 31.6 °F - 15.3 °F 51% 30.34 in 10.0 mi Calm Calm - N/A   Clear
4:35 PM 30.9 °F - 14.2 °F 50% 30.33 in 10.0 mi Calm Calm - N/A   Clear
4:55 PM 32.2 °F - 15.1 °F 49% 30.33 in 10.0 mi Calm Calm - N/A   Clear
5:16 PM 31.6 °F - 13.8 °F 48% 30.32 in 10.0 mi Calm Calm - N/A   Clear
5:35 PM 30.0 °F - 14.0 °F 51% 30.32 in 10.0 mi Calm Calm - N/A   Clear
5:55 PM 26.4 °F - 15.6 °F 64% 30.33 in 10.0 mi Calm Calm - N/A   Clear
6:15 PM 25.5 °F - 14.9 °F 64% 30.33 in 10.0 mi Calm Calm - N/A   Clear
6:35 PM 24.8 °F - 16.5 °F 71% 30.32 in 10.0 mi Calm Calm - N/A   Clear
6:55 PM 23.5 °F - 14.9 °F 70% 30.32 in 10.0 mi Calm Calm - N/A   Clear
7:15 PM 24.6 °F - 15.3 °F 68% 30.33 in 10.0 mi Calm Calm - N/A   Clear
7:35 PM 23.2 °F - 16.0 °F 74% 30.34 in 10.0 mi Calm Calm - N/A   Clear
7:56 PM 22.5 °F - 14.2 °F 71% 30.34 in 10.0 mi Calm Calm - N/A   Clear
8:35 PM 23.0 °F - 14.9 °F 71% 30.35 in 10.0 mi Calm Calm - N/A   Clear
8:55 PM 23.0 °F - 14.7 °F 71% 30.35 in 10.0 mi Calm Calm - N/A   Clear
9:16 PM 19.2 °F - 13.1 °F 77% 30.34 in 10.0 mi Calm Calm - N/A   Clear
9:35 PM 15.8 °F - 11.8 °F 84% 30.34 in 10.0 mi Calm Calm - N/A   Unknown
9:55 PM 19.0 °F - 14.2 °F 81% 30.34 in 10.0 mi Calm Calm - N/A   Unknown
10:15 PM 17.6 °F - 13.8 °F 85% 30.33 in 10.0 mi Calm Calm - N/A   Clear
10:35 PM 19.9 °F - 15.3 °F 82% 30.31 in 10.0 mi Calm Calm - N/A   Clear
10:56 PM 15.6 °F 10.0 °F 11.7 °F 84% 30.30 in 10.0 mi ESE 3.5 mph - N/A   Clear
11:15 PM 19.0 °F 13.9 °F 14.9 °F 84% 30.29 in 10.0 mi SE 3.5 mph - N/A   Clear
11:35 PM 20.1 °F 13.6 °F 15.1 °F 81% 30.29 in 10.0 mi SE 4.6 mph - N/A   Clear
11:55 PM 19.6 °F 14.5 °F 13.8 °F 78% 30.29 in 10.0 mi SE 3.5 mph - N/A   Clear